When you browse on this site, cookies collect data to enhance your experience and personalize the content and advertising you see.
Visit our Privacy Policy to learn more. By continuing to use the site, you agree to this use of cookies and data.

Hourly Weather Tarutino

Today, 15 July, Wednesday

Time Temperature Precipitation Wind Pressure Humidity
00:00 +12°C° 3.6 mm 7 mps 739 mmHg 96%
01:00 +12°C° 3.6 mm 7 mps 739 mmHg 96%
02:00 +13°C° 0 mm 6 mps 738 mmHg 97%
03:00 +12°C° 1.4 mm 7 mps 738 mmHg 97%
04:00 +11°C° 1.4 mm 7 mps 738 mmHg 97%
05:00 +11°C° 1.4 mm 7 mps 738 mmHg 97%
06:00 +12°C° 0.8 mm 7 mps 738 mmHg 97%
07:00 +12°C° 0.8 mm 7 mps 738 mmHg 97%
08:00 +13°C° 0 mm 6 mps 738 mmHg 98%
09:00 +13°C° 0.3 mm 5 mps 738 mmHg 97%
10:00 +14°C° 0.3 mm 5 mps 738 mmHg 97%
11:00 +14°C° 0.3 mm 4 mps 738 mmHg 97%
12:00 +15°C° 0.2 mm 4 mps 738 mmHg 95%
13:00 +17°C° 0.2 mm 4 mps 738 mmHg 93%
14:00 +18°C° 0.2 mm 3 mps 737 mmHg 92%
15:00 +18°C° 0.5 mm 3 mps 737 mmHg 92%
16:00 +17°C° 0.5 mm 4 mps 737 mmHg 92%
17:00 +17°C° 0.5 mm 4 mps 737 mmHg 91%
18:00 +17°C° 0.6 mm 4 mps 737 mmHg 93%
19:00 +15°C° 0.6 mm 4 mps 737 mmHg 94%
20:00 +15°C° 0.6 mm 4 mps 737 mmHg 96%
21:00 +14°C° 0.7 mm 4 mps 737 mmHg 96%
22:00 +14°C° 0.7 mm 4 mps 737 mmHg 97%
23:00 +14°C° 0.7 mm 3 mps 737 mmHg 98%

Tomorrow, 16 July, Thursday

Time Temperature Precipitation Wind Pressure Humidity
00:00 +14°C° 2.7 mm 4 mps 737 mmHg 98%
01:00 +14°C° 2.7 mm 4 mps 737 mmHg 98%
02:00 +13°C° 2.7 mm 4 mps 737 mmHg 98%
03:00 +13°C° 2.1 mm 4 mps 737 mmHg 98%
04:00 +13°C° 2.1 mm 4 mps 737 mmHg 98%
05:00 +13°C° 2.1 mm 4 mps 737 mmHg 98%
06:00 +13°C° 1.4 mm 4 mps 737 mmHg 98%
07:00 +13°C° 1.4 mm 3 mps 737 mmHg 98%
08:00 +13°C° 1.4 mm 3 mps 738 mmHg 98%
09:00 +13°C° 0.5 mm 3 mps 738 mmHg 98%
10:00 +13°C° 0.5 mm 3 mps 738 mmHg 97%
11:00 +13°C° 0.5 mm 3 mps 739 mmHg 97%
12:00 +13°C° 0.2 mm 3 mps 739 mmHg 97%
13:00 +13°C° 0.2 mm 3 mps 739 mmHg 97%
14:00 +14°C° 0.2 mm 3 mps 740 mmHg 97%
15:00 +13°C° 0.3 mm 3 mps 740 mmHg 97%
16:00 +13°C° 0.3 mm 3 mps 740 mmHg 97%
17:00 +13°C° 0.3 mm 3 mps 740 mmHg 97%
18:00 +13°C° 0 mm 3 mps 741 mmHg 97%
19:00 +13°C° 0 mm 3 mps 741 mmHg 97%
20:00 +13°C° 0 mm 3 mps 741 mmHg 96%
21:00 +13°C° 0 mm 3 mps 741 mmHg 97%
22:00 +13°C° 0 mm 3 mps 742 mmHg 97%
23:00 +12°C° 0 mm 3 mps 742 mmHg 97%

Day after tomorrow, 17 July, Friday

Time Temperature Precipitation Wind Pressure Humidity
00:00 +12°C° 0 mm 3 mps 742 mmHg 97%
01:00 +12°C° 0 mm 3 mps 742 mmHg 97%
02:00 +12°C° 0 mm 3 mps 742 mmHg 97%
03:00 +12°C° 0 mm 3 mps 742 mmHg 97%
04:00 +13°C° 0 mm 2 mps 743 mmHg 97%
05:00 +13°C° 0 mm 2 mps 743 mmHg 97%
06:00 +13°C° 0 mm 2 mps 743 mmHg 95%
07:00 +13°C° 0 mm 3 mps 744 mmHg 94%
08:00 +13°C° 0 mm 3 mps 744 mmHg 93%
09:00 +13°C° 0 mm 3 mps 744 mmHg 91%
10:00 +14°C° 0 mm 3 mps 745 mmHg 89%
11:00 +14°C° 0 mm 3 mps 745 mmHg 87%
12:00 +16°C° 0 mm 3 mps 745 mmHg 84%
13:00 +17°C° 0 mm 3 mps 745 mmHg 82%
14:00 +17°C° 0 mm 3 mps 745 mmHg 79%
15:00 +17°C° 0 mm 3 mps 746 mmHg 79%
16:00 +17°C° 0 mm 2 mps 746 mmHg 79%
17:00 +17°C° 0 mm 2 mps 746 mmHg 80%
18:00 +16°C° 0 mm 2 mps 746 mmHg 82%
19:00 +16°C° 0 mm 2 mps 746 mmHg 85%
20:00 +15°C° 0 mm 1 mps 746 mmHg 88%
21:00 +14°C° 0 mm 1 mps 746 mmHg 90%
22:00 +13°C° 0 mm 1 mps 747 mmHg 93%
23:00 +12°C° 0 mm 1 mps 747 mmHg 96%

18 July, Saturday

Time Temperature Precipitation Wind Pressure Humidity
00:00 +12°C° 0 mm 1 mps 747 mmHg 96%
01:00 +12°C° 0 mm 1 mps 747 mmHg 96%
02:00 +10°C° 0 mm 2 mps 748 mmHg 96%
03:00 +12°C° 0 mm 2 mps 748 mmHg 96%
04:00 +12°C° 0 mm 2 mps 748 mmHg 95%
05:00 +13°C° 0 mm 2 mps 748 mmHg 94%
06:00 +14°C° 0 mm 2 mps 748 mmHg 89%
07:00 +15°C° 0 mm 2 mps 748 mmHg 84%
08:00 +16°C° 0 mm 2 mps 749 mmHg 78%
09:00 +17°C° 0 mm 2 mps 749 mmHg 75%
10:00 +18°C° 0 mm 3 mps 749 mmHg 71%
11:00 +19°C° 0 mm 3 mps 749 mmHg 68%
12:00 +20°C° 0 mm 3 mps 749 mmHg 64%
13:00 +21°C° 0 mm 3 mps 748 mmHg 61%
14:00 +23°C° 0 mm 2 mps 748 mmHg 57%
15:00 +23°C° 0.2 mm 2 mps 748 mmHg 62%
16:00 +23°C° 0.2 mm 2 mps 748 mmHg 66%
17:00 +22°C° 0.2 mm 1 mps 748 mmHg 70%
18:00 +21°C° 0.1 mm 1 mps 748 mmHg 75%
19:00 +19°C° 0.1 mm 1 mps 748 mmHg 79%
20:00 +16°C° 0.1 mm 1 mps 748 mmHg 83%
21:00 +15°C° 0 mm 1 mps 748 mmHg 85%
22:00 +15°C° 0 mm 1 mps 748 mmHg 86%
23:00 +14°C° 0 mm 2 mps 748 mmHg 87%

19 July, Sunday

Time Temperature Precipitation Wind Pressure Humidity
00:00 +13°C° 0 mm 2 mps 748 mmHg 87%
01:00 +13°C° 0 mm 2 mps 748 mmHg 88%
02:00 +13°C° 0 mm 2 mps 748 mmHg 89%
03:00 +13°C° 0 mm 2 mps 748 mmHg 89%
04:00 +14°C° 0 mm 2 mps 748 mmHg 88%
05:00 +14°C° 0 mm 2 mps 748 mmHg 88%
06:00 +15°C° 0 mm 2 mps 748 mmHg 82%
07:00 +17°C° 0 mm 2 mps 748 mmHg 76%
08:00 +18°C° 0 mm 3 mps 748 mmHg 70%
09:00 +18°C° 0 mm 3 mps 748 mmHg 68%
10:00 +19°C° 0 mm 3 mps 748 mmHg 67%
11:00 +19°C° 0 mm 3 mps 748 mmHg 65%
12:00 +20°C° 0 mm 3 mps 747 mmHg 64%
13:00 +20°C° 0 mm 3 mps 747 mmHg 62%
14:00 +21°C° 0 mm 3 mps 747 mmHg 61%
15:00 +21°C° 0 mm 3 mps 747 mmHg 62%
16:00 +23°C° 0 mm 2 mps 746 mmHg 62%
17:00 +24°C° 0 mm 2 mps 746 mmHg 63%
18:00 +21°C° 0 mm 2 mps 746 mmHg 68%
19:00 +19°C° 0 mm 2 mps 746 mmHg 73%
20:00 +19°C° 0 mm 1 mps 746 mmHg 78%
21:00 +17°C° 0.6 mm 2 mps 745 mmHg 82%
22:00 +16°C° 0.6 mm 2 mps 745 mmHg 86%
23:00 +15°C° 0.6 mm 2 mps 745 mmHg 90%

20 July, Monday

Time Temperature Precipitation Wind Pressure Humidity
00:00 +15°C° 0.8 mm 2 mps 745 mmHg 92%
01:00 +15°C° 0.8 mm 2 mps 745 mmHg 94%
02:00 +15°C° 0.8 mm 2 mps 745 mmHg 96%
03:00 +15°C° 0.3 mm 2 mps 745 mmHg 96%
04:00 +15°C° 0.3 mm 2 mps 744 mmHg 95%
05:00 +14°C° 0.3 mm 3 mps 744 mmHg 95%
06:00 +16°C° 0.2 mm 3 mps 744 mmHg 93%
07:00 +17°C° 0.2 mm 3 mps 744 mmHg 90%
08:00 +18°C° 0.2 mm 3 mps 744 mmHg 88%
09:00 +19°C° 0.1 mm 3 mps 744 mmHg 83%
10:00 +20°C° 0.1 mm 3 mps 743 mmHg 78%
11:00 +22°C° 0.1 mm 3 mps 743 mmHg 72%
12:00 +22°C° 0.6 mm 3 mps 743 mmHg 73%
13:00 +24°C° 0.6 mm 3 mps 743 mmHg 74%
14:00 +24°C° 0.6 mm 3 mps 742 mmHg 76%
15:00 +22°C° 0.8 mm 3 mps 742 mmHg 80%
16:00 +22°C° 0.8 mm 3 mps 742 mmHg 84%
17:00 +21°C° 0.8 mm 3 mps 742 mmHg 89%
18:00 +20°C° 0.2 mm 3 mps 741 mmHg 91%
19:00 +19°C° 0.2 mm 2 mps 741 mmHg 93%
20:00 +18°C° 0.2 mm 2 mps 741 mmHg 95%
21:00 +18°C° 0 mm 2 mps 741 mmHg 95%
22:00 +17°C° 0 mm 2 mps 740 mmHg 96%
23:00 +17°C° 0 mm 2 mps 740 mmHg 96%
Show more